カタログに戻る

ICEYE-X36

運用中科学SSO
NORAD 59103·PAYLOAD·🇺🇸 United States

打ち上げ Mar 4, 2024 から Vandenberg Space Force Base

Loading…

次のパス (今後24時間)

TLE

最新Source: Space-Track

元期: Sep 14, 2026, 14:29 UTC

1 59103U 24043F   26257.60403791  .00003604  00000-0  24097-3 0  9991
2 59103  97.8496  37.3752 0006332  29.2623 330.8958 15.07614001138618

AllMySatでICEYE-X36をリアルタイム追跡

Download on the App Store